Mackinac Island, MI

1:21 AM EST on February 07, 2016 (GMT -0500)
Mackinac Island

Weather History for KMCD - December, 2013

Change the Weather History Date:

Tuesday, December 24, 2013

  Actual Average Record
Temperature  
Mean Temperature 0 °F -  
Max Temperature 7 °F 27 °F 54 °F (2015)
Min Temperature -7 °F 17 °F -7 °F (2013)
Degree Days  
Heating Degree Days 65    
Moisture  
Dew Point -5 °F    
Average Humidity 78    
Maximum Humidity 88    
Minimum Humidity 59    
Precipitation  
Precipitation 0.00 in - - ()
Sea Level Pressure  
Sea Level Pressure 30.41 in    
Wind  
Wind Speed 5 mph (NE)    
Max Wind Speed 13 mph    
Max Gust Speed 18 mph    
Visibility 10 miles    
Events      
Averages and records for this station are not official NWS values.
T = Trace of Precipitation, MM = Missing Value Source: NWS Daily Summary

Daily Weather History Graph

Daily Weather History Graph

Search for Another Location

Airport or City:

Trip Planner

Search our weather history database for the weather conditions in past years. The results will help you decide how hot, cold, wet, or windy it might be!

Date:

Astronomy

Dec. 24, 2013 Rise Set
Actual Time 8:18 AM EST 4:58 PM EST
Civil Twilight 7:43 AM EST 5:32 PM EST
Nautical Twilight 7:05 AM EST 6:10 PM EST
Astronomical Twilight 6:29 AM EST 6:47 PM EST
Moon No Moon Rise 11:51 AM EST (12/24)
Length of Visible Light 9h 48m
Length of Day
8h 39m
Waning Gibbous, 59% of the Moon is Illuminated
Dec 24
Waning Gibbous
Dec 25
Last Quarter
Jan 1
New
Jan 7
First Quarter
Jan 15
Full

Hourly Weather History & Observations

Time (EST) Temp. Windchill Dew Point Humidity Pressure Visibility Wind Dir Wind Speed Gust Speed Precip Events Conditions
12:16 AM 1.4 °F -11.3 °F -2.9 °F 82% 30.33 in 10.0 mi NNE 6.9 mph - N/A   Clear
12:36 AM 0.5 °F -13.6 °F -3.8 °F 82% 30.33 in 10.0 mi NNE 8.1 mph - N/A   Clear
12:56 AM 0.5 °F -13.6 °F -3.8 °F 82% 30.33 in 10.0 mi NNE 8.1 mph - N/A   Clear
1:16 AM 0.3 °F -12.6 °F -3.6 °F 83% 30.33 in 10.0 mi NNE 6.9 mph - N/A   Clear
1:36 AM 0.1 °F -14.0 °F -4.0 °F 83% 30.33 in 10.0 mi NNE 8.1 mph - N/A   Clear
1:56 AM -0.4 °F -15.7 °F -4.4 °F 83% 30.34 in 10.0 mi NNE 9.2 mph - N/A   Clear
2:16 AM -0.6 °F -16.0 °F -4.9 °F 82% 30.34 in 10.0 mi NNE 9.2 mph - N/A   Clear
2:36 AM -0.8 °F -13.9 °F -4.9 °F 83% 30.34 in 10.0 mi NNE 6.9 mph - N/A   Clear
2:56 AM -1.3 °F -16.8 °F -5.1 °F 84% 30.35 in 10.0 mi NNE 9.2 mph - N/A   Clear
3:16 AM -1.5 °F -14.7 °F -5.4 °F 83% 30.36 in 10.0 mi NNE 6.9 mph - N/A   Clear
3:36 AM -2.2 °F -14.2 °F -5.4 °F 86% 30.37 in 10.0 mi NNE 5.8 mph - N/A   Clear
3:55 AM -2.4 °F -15.8 °F -5.8 °F 85% 30.37 in 10.0 mi NNE 6.9 mph - N/A   Clear
4:16 AM -2.7 °F -16.2 °F -6.2 °F 85% 30.37 in 10.0 mi NNE 6.9 mph - N/A   Clear
4:36 AM -3.1 °F -16.7 °F -6.7 °F 85% 30.37 in 10.0 mi NNE 6.9 mph - N/A   Clear
4:56 AM -3.6 °F -14.1 °F -7.4 °F 84% 30.38 in 10.0 mi NNE 4.6 mph - N/A   Clear
5:16 AM -3.8 °F -14.4 °F -7.6 °F 84% 30.39 in 10.0 mi North 4.6 mph - N/A   Clear
5:36 AM -4.2 °F -16.5 °F -8.0 °F 84% 30.38 in 10.0 mi NNE 5.8 mph - N/A   Clear
5:56 AM -4.0 °F -16.3 °F -7.6 °F 85% 30.38 in 10.0 mi NNE 5.8 mph - N/A   Clear
6:16 AM -4.4 °F -15.0 °F -8.1 °F 84% 30.39 in 10.0 mi NNE 4.6 mph - N/A   Clear
6:36 AM -4.4 °F -16.7 °F -8.0 °F 84% 30.40 in 10.0 mi NNE 5.8 mph - N/A   Clear
6:56 AM -4.7 °F -17.2 °F -8.1 °F 85% 30.41 in 10.0 mi NNE 5.8 mph - N/A   Clear
7:16 AM -4.7 °F -15.4 °F -8.5 °F 84% 30.41 in 10.0 mi NNE 4.6 mph - N/A   Clear
7:36 AM -5.1 °F -17.6 °F -8.9 °F 84% 30.41 in 10.0 mi NNE 5.8 mph - N/A   Clear
7:56 AM -5.4 °F -16.2 °F -9.2 °F 84% 30.42 in 10.0 mi NNE 4.6 mph - N/A   Clear
8:16 AM -6.3 °F -17.3 °F -9.6 °F 86% 30.42 in 10.0 mi NNE 4.6 mph - N/A   Clear
8:36 AM -6.5 °F -15.3 °F -9.8 °F 86% 30.42 in 10.0 mi NNE 3.5 mph - N/A   Clear
8:56 AM -7.4 °F -18.6 °F -11.0 °F 84% 30.43 in 10.0 mi NE 4.6 mph - N/A   Clear
9:16 AM -4.0 °F - -7.8 °F 84% 30.43 in 10.0 mi Calm Calm - N/A   Clear
9:36 AM -1.7 °F -9.7 °F -6.0 °F 82% 30.43 in 10.0 mi NNE 3.5 mph - N/A   Clear
9:56 AM -0.4 °F -8.3 °F -5.4 °F 79% 30.44 in 10.0 mi NNE 3.5 mph - N/A   Clear
10:16 AM 0.3 °F - -5.1 °F 78% 30.45 in 10.0 mi Calm Calm - N/A   Clear
10:35 AM 0.5 °F - -5.6 °F 75% 30.45 in 10.0 mi Calm Calm - N/A   Clear
10:56 AM 1.2 °F - -5.3 °F 74% 30.45 in 10.0 mi Calm Calm - N/A   Clear
11:16 AM 1.8 °F - -5.3 °F 72% 30.45 in 10.0 mi Calm Calm - N/A   Clear
11:35 AM 2.3 °F -7.2 °F -4.9 °F 72% 30.44 in 10.0 mi NNE 4.6 mph - N/A   Clear
11:56 AM 2.7 °F -4.8 °F -4.5 °F 72% 30.44 in 10.0 mi NNW 3.5 mph - N/A   Clear
12:16 PM 1.9 °F - -6.0 °F 69% 30.43 in 10.0 mi Calm Calm - N/A   Clear
12:35 PM 3.7 °F - -6.3 °F 63% 30.43 in 10.0 mi Calm Calm - N/A   Clear
12:56 PM 3.9 °F -3.4 °F -6.0 °F 64% 30.43 in 10.0 mi NNE 3.5 mph - N/A   Clear
1:16 PM 5.0 °F - -5.6 °F 62% 30.43 in 10.0 mi Calm Calm - N/A   Clear
1:36 PM 4.5 °F - -6.2 °F 62% 30.43 in 10.0 mi Calm Calm - N/A   Clear
1:56 PM 4.6 °F -2.5 °F -5.4 °F 63% 30.43 in 10.0 mi West 3.5 mph - N/A   Clear
2:15 PM 3.7 °F - -4.0 °F 70% 30.43 in 10.0 mi Calm Calm - N/A   Clear
2:36 PM 4.1 °F - -3.6 °F 70% 30.44 in 10.0 mi Calm Calm - N/A   Clear
2:56 PM 4.5 °F - -3.5 °F 70% 30.44 in 10.0 mi Calm Calm - N/A   Clear
3:15 PM 5.0 °F - -3.6 °F 68% 30.44 in 10.0 mi Calm Calm - N/A   Clear
3:36 PM 5.0 °F - -4.4 °F 65% 30.44 in 10.0 mi Calm Calm - N/A   Clear
3:56 PM 7.3 °F - -3.8 °F 60% 30.44 in 10.0 mi Calm Calm - N/A   Clear
4:15 PM 7.5 °F - -4.0 °F 59% 30.44 in 10.0 mi Calm Calm - N/A   Clear
4:36 PM 4.6 °F - -4.4 °F 66% 30.43 in 10.0 mi Calm Calm - N/A   Clear
4:56 PM 2.8 °F -4.6 °F -3.6 °F 74% 30.43 in 10.0 mi East 3.5 mph - N/A   Clear
5:15 PM 1.0 °F - -4.2 °F 79% 30.44 in 10.0 mi Calm Calm - N/A   Clear
5:36 PM -2.2 °F - -6.3 °F 83% 30.44 in 10.0 mi Calm Calm - N/A   Clear
5:56 PM -2.4 °F -10.6 °F -6.2 °F 84% 30.44 in 10.0 mi ESE 3.5 mph - N/A   Clear
6:15 PM -1.8 °F -9.9 °F -5.8 °F 83% 30.44 in 10.0 mi SSE 3.5 mph - N/A   Clear
6:36 PM -2.9 °F -13.3 °F -6.3 °F 85% 30.44 in 10.0 mi South 4.6 mph - N/A   Clear
6:55 PM -2.4 °F -14.4 °F -5.1 °F 88% 30.44 in 10.0 mi SSE 5.8 mph - N/A   Clear
7:16 PM 3.9 °F -9.4 °F 0.1 °F 84% 30.43 in 10.0 mi SSE 8.1 mph - N/A   Clear
7:36 PM 4.5 °F -6.3 °F -0.8 °F 79% 30.43 in 10.0 mi South 5.8 mph - N/A   Clear
7:50 PM 3.2 °F -7.8 °F -2.0 °F 79% 30.43 in 10.0 mi South 5.8 mph - N/A   Clear
9:25 PM 6.8 °F -5.9 °F 1.4 °F 79% 30.42 in 10.0 mi SSE 8.1 mph - N/A   Clear
10:25 PM 6.8 °F -9.3 °F 1.4 °F 79% 30.40 in 10.0 mi SSE 12.7 mph 18.4 mph N/A   Scattered Clouds